Василиса▶ Я жду вашего обращения. Что Вы хотите узнать?
Логотип
Архив погоды в Мурманске за последнюю неделю, погода в Мурманске за октябрь 2019 года www.pogodaiklimat.ru Метеоновости Прогнозы погоды Климатический монитор Климат мира Архивы погоды Летопись погоды Погода в мире Метеокарты Вход Регистрация Метеоновости Прогнозы погоды Климатический монитор Климат мира Архивы погоды Летопись погоды Погода в мире Метеокарты Вход Регистрация Погода и климат Архив погоды Россия Мурманская область МурманскПОГОДА в Мурманске  Прогноз погоды в Мурманске Монитор погоды в Мурманске Текущая погода в Мурманске Архив погоды в Мурманске Летопись погоды в Мурманске Саммари погоды в Мурманске Климат Мурманска Веб-камера в Мурманске АРХИВ ПОГОДЫ в Мурманске
Время
(UTC), дата
09 10.10
12 10.10
15 10.10
18 10.10
21 10.10
00 11.10
03 11.10
06 11.10
09 11.10
12 11.10
15 11.10
18 11.10
21 11.10
00 12.10
03 12.10
06 12.10
09 12.10
12 12.10
15 12.10
18 12.10
21 12.10
00 13.10
03 13.10
06 13.10
09 13.10
12 13.10
15 13.10
18 13.10
21 13.10
00 14.10
03 14.10
06 14.10
09 14.10
12 14.10
15 14.10
18 14.10
21 14.10
00 15.10
03 15.10
06 15.10
09 15.10
12 15.10
15 15.10
18 15.10
21 15.10
00 16.10
03 16.10
06 16.10
09 16.10
12 16.10
15 16.10
18 16.10
21 16.10
00 17.10
03 17.10
06 17.10
Ветер
(напр.,м/с)
Видим. Явления Облачность Т
(С)
Тd
(С)
f
(%)
Тe
(С)
Тes
(С)
Комфортность P
(гПа)
Po
(гПа)
Тmin
(С)
Tmax
(С)
R
(мм)
R24
(мм)
S
(см)
С 4 20 км {ливн. осадки} 9/8 300 м
[Cb cap Ac trans]
+1.7 +0.4 91 -3 -3 прохладно 992.3 986.1
С 4 20 км {ливн. осадки} 10/10 300 м
[Cb cap]
+1.4 -1.0 84 -4 -4 холодно 993.1 986.9
С 3 20 км 9/9 300 м
[Cb cap Ac trans]
+1.5 -0.4 87 -3 -3 прохладно 993.5 987.3 1
СЗ 3 10 км слаб. ливневой дождь 9/8 300 м
[Cb cap Ac trans]
+1.5 +0.1 90 -3 -3 прохладно 993.5 987.3 +2.2 0.3
СЗ 3 10 км {ливн. осадки} 10/10 300 м
[Cb cap]
+1.3 +0.1 92 -3 -3 прохладно 993.6 987.4
Ю 1 10 км {ливн. осадки} 9/8 300 м
[Cb cap Ac trans]
+0.9 -0.6 90 -1 -1 по сезону 994.1 987.9
Ю 2 10 км 9/8 300 м
[Cb cap Ac trans]
+0.5 -1.1 89 -3 -3 по сезону 994.4 988.2 +0.4 0.0
ЮЗ 1 50 км осадки на расстоянии {ливн. осадки} 9/9 300 м
[Cb cap]
+0.7 -1.1 88 -1 -1 по сезону 994.7 988.5 +0.4 0.0 0
ЮЗ 2 20 км 9/9 600 м
[Sc]
+1.2 -0.9 86 -2 -2 по сезону 995.5 989.3
З 3 50 км 9/9 300 м
[Cb cap]
+1.9 -0.7 83 -2 -2 по сезону 995.9 989.7
СЗ 2 20 км 9/9 300 м
[Cb cap]
+0.9 -1.5 84 -3 -3 по сезону 996.4 990.2 0.0
ЮЗ 1 10 км 9/9 300 м
[Sc]
-0.2 -1.5 91 -2 -2 по сезону 996.5 990.2 +2.2
Ю 2 10 км 10/8 300 м
[Sc Ac As]
-0.2 -1.9 88 -4 -4 по сезону 996.4 990.1
Ю 3 10 км 10/10 300 м
[Sc]
-0.2 -1.7 90 -5 -5 по сезону 996.7 990.4
Ю 2 10 км 9/8 200 м
[Sc Ac trans]
-0.4 -1.5 92 -4 -4 по сезону 996.8 990.5 -0.4
ЮЗ 1 20 км 9/8 600 м
[Sc Ac trans]
-0.2 -1.2 93 -2 -2 по сезону 996.5 990.2 -0.5 0
ЮЗ 1 20 км 10/6 600 м
[Sc Ac und]
+1.5 -0.9 84 -0 -0 по сезону 996.7 990.5
СВ 3 20 км 8/6 600 м
[Sc Ac trans]
+2.1 -1.3 78 -2 -2 по сезону 997.0 990.8
С 2 20 км 9/8 600 м
[Sc Ac trans]
+1.5 -1.1 83 -2 -2 по сезону 997.1 990.9
В 2 10 км 9/8 600 м
[Sc Ac trans]
+1.1 -1.2 85 -2 -2 по сезону 997.3 991.1 +2.2
СВ 2 10 км слаб. ливневой снег 9/8 600 м
[Cb cap Ac trans]
+1.6 0.0 89 -2 -2 по сезону 997.7 991.5
СВ 3 10 км слаб. ливневой дождь 9/8 600 м
[Cb cap Ac trans]
+1.6 +0.3 91 -3 -3 по сезону 998.2 992.0
СВ 2 10 км слаб. ливневой дождь 10/8 600 м
[Cb cap Ac und]
+1.2 +0.3 94 -2 -2 по сезону 998.9 992.7 +0.9 1
С 2 10 км слаб. ливневой дождь 10/9 200 м
[Cb cap Ac und]
+1.4 +0.7 95 -2 -2 по сезону 999.6 993.4 +1.0 3 0
СВ 3 20 км слаб. ливневой дождь 10/8 300 м
[Cb cap Ac und]
+2.1 +1.0 92 -2 -2 по сезону 1001.0 994.8
СВ 3 20 км слаб. ливневой дождь 10/8 300 м
[Cb cap Ac und]
+2.5 +1.0 90 -2 -2 по сезону 1002.5 996.3
СВ 2 20 км в посл. час ливневой дождь 10/8 300 м
[Cb cap Ac und]
+2.2 +1.0 92 -1 -1 по сезону 1003.8 997.6 3
В 2 20 км в посл. час ливневой дождь 10/10 300 м
[Cb cap]
+1.9 +0.9 93 -2 -2 по сезону 1005.1 998.8 +2.5 2
В 2 10 км {ливн. осадки} 8/6 1000 м
[Sc Ac trans]
+1.6 +0.4 92 -2 -2 по сезону 1006.3 1000.0
В 1 10 км {ливн. осадки} 9/6 200 м
[St Ac trans]
+1.1 +0.1 93 -1 -1 по сезону 1007.2 1000.9
СВ 2 10 км 9/8 200 м
[Frnb Ac trans]
+1.4 +0.5 94 -2 -2 по сезону 1008.1 1001.8 +0.8 0.8
С 1 10 км {ливн. осадки} 9/5 1000 м
[Sc Ac As]
+1.5 +0.5 93 -0 -0 по сезону 1009.0 1002.7 +0.8 0.3 0
С 1 20 км 9/3 300 м
[Cu Sc Ac As]
+2.7 +0.8 87 +1 +1 по сезону 1009.8 1003.5
С 2 20 км 9/6 600 м
[Cu Sc Ac As]
+3.0 -0.1 80 0 0 по сезону 1010.2 1003.9
С 2 20 км 9/9 1000 м
[Sc]
+2.2 -0.7 81 -1 -1 по сезону 1010.8 1004.5 0.0
СВ 1 10 км 9/9 1000 м
[Sc]
+1.6 -1.8 78 0 0 по сезону 1011.6 1005.3 +3.1
ЮЗ 2 10 км 9/8 1000 м
[Sc Ac trans]
+0.3 -0.6 94 -3 -3 по сезону 1012.4 1006.1
ЮЗ 2 10 км 9/8 1000 м
[Sc Ac trans]
+0.6 -0.9 90 -3 -3 по сезону 1013.5 1007.2
Ю 1 10 км 9/8 600 м
[Cb cap Ac trans]
+1.2 -0.6 88 -1 -1 по сезону 1014.8 1008.5 +0.3
ЮЗ 2 50 км 9/6 600 м
[Sc Ac trans]
+1.2 -0.9 86 -2 -2 по сезону 1016.0 1009.7 +0.3 0
Ю 1 50 км 9/8 1000 м
[Sc Ac trans]
+2.4 -1.1 78 +1 +1 по сезону 1017.6 1011.3
Ю 3 50 км 9/9 1000 м
[Sc]
+2.1 -0.7 82 -2 -2 по сезону 1018.6 1012.3
ЮЗ 2 20 км слаб. ливневой дождь 10/8 600 м
[Cb cap Ac und]
+1.3 -0.3 89 -2 -2 по сезону 1019.4 1013.0 0.0
Ю 2 10 км слаб. ливневой снег 9/6 300 м
[Cb cap Ac As]
+0.9 -0.3 92 -3 -3 по сезону 1019.4 1013.0 +2.9 0.0
Ю 2 10 км слаб. ливневой снег 10/10 300 м
[Cb cap]
+1.0 -0.5 90 -3 -3 по сезону 1019.7 1013.3
Ю 4 10 км слаб. ливневой снег 10/10 300 м
[Cb cap]
+0.9 0.0 94 -5 -5 по сезону 1019.6 1013.2
Ю 3 10 км {ливн. осадки} 10/5 300 м
[Sc Ac As]
+0.3 -1.5 88 -4 -4 по сезону 1019.6 1013.2 +0.3 0.3
ЮЗ 2 20 км {ливн. осадки} 9/8 300 м
[Sc Ac As]
-0.3 -2.0 88 -4 -4 по сезону 1019.3 1012.9 -0.3 0.3 0
ЮЗ 2 20 км 8/4 300 м
[Cb cap Ac trans Ci fib]
-0.1 -2.8 82 -4 -3 по сезону 1019.5 1013.1
ЮЗ 3 20 км 4/3 1000 м
[Sc Ac trans]
+0.1 -2.8 81 -4 -4 по сезону 1019.4 1013.0
З 2 20 км 8/8 300 м
[St Ac trans]
-1.8 -3.4 89 -6 -6 прохладно 1019.3 1012.9
З 2 10 км слаб. ливневой снег 9/9 300 м
[Cb cap]
-2.7 -4.3 89 -7 -7 прохладно 1019.5 1013.0 +0.3 0.0
ЮЗ 2 10 км слаб. ливневой снег 9/9 200 м
[Cb cap]
-3.5 -4.3 94 -8 -8 прохладно 1019.5 1013.0
Ю 3 10 км слаб. ливневой снег 9/9 100 м
[Cb cap]
-3.8 -4.5 95 -9 -9 холодно 1019.4 1012.9
Ю 1 10 км {ливн. осадки} 9/9 600 м
[Cb cap]
-2.2 -3.5 91 -5 -5 по сезону 1019.4 1012.9 -4.2 0.0
Ю 2 20 км {ливн. осадки} 9/9 600 м
[Cb cap]
-1.5 -3.5 86 -5 -5 по сезону 1019.4 1013.0 -4.2 0.0 0
Местоположение метеостанции Мурманск (Мурманская область, Россия): широта 68.97 долгота 33.05 высота над уровнем моря 51 м.В архиве по умолчанию представлена погода в Мурманске за последнюю неделю. Архивные данные за месяц целиком и за предыдущие месяцы, начиная с января 2011 года, Вы можете получить, выбрав интересующий диапазон дат из раскрывающегося списка и нажав кнопку "Найти!".
*Определитесь, кто Вы:
Внимание! Время в таблицах - всемирное. Для получения местного времени необходимо прибавить поправку, которая равна 3 ч.Смотрите также архив погоды в соседних городах и на ближайших метеорологических станциях: Погода в Североморске (Мурманская область, Россия) (20 км) Погода в Полярном (Мурманская область, Россия) (31 км) Погода в Ура-Губе (Мурманская область, Россия) (36 км) Погода в Падуне (Мурманская область, Россия) (63 км) Погода в Пулозере (Мурманская область, Россия) (70 км) Погода в Перевале (Мурманская область, Россия) (70 км) Погода в Цып-Наволоке (Мурманская область, Россия) (85 км) Погода в Териберке (Мурманская область, Россия) (86 км) Погода в Порту Лиинахамари (Мурманская область, Россия) (99 км) Погода в Туманной (Мурманская область, Россия) (104 км)Партнеры нашего сайта:       Пояснения к столбцам:Ветер - указаны скорость ветра в м/с - средняя за 10 мин, порывы в срок и между сроками (в фигурных скобках) и направление, откуда дует ветер: С - северный, СВ - северо-восточный, В - восточный, ЮВ - юго-восточный, Ю - южный, ЮЗ - юго-западный, З - западный, СЗ - северо-западный.Видимость - горизонтальная дальность видимости в метрах или километрах. При видимости от 1 до 10 км при отсутствии осадков обычно наблюдается дымка, при ухудшении видимости до 1 км и менее - туман. В сухую погоду видимость может ухудшаться дымом, пылью или мглою.Явления - указаны атмосферные явления, наблюдавшиеся в срок или в последний час перед сроком; фигурными скобками обозначены явления, наблюдавшиеся между сроками (за 1-3 часа до срока); квадратными скобками обозначены град или гололедные отложения с указанием их диаметра в мм.Облачность - указаны через наклонную черту общая и нижняя облачность в баллах и высота нижней границы облаков в метрах; квадратными скобками обозначены формы облаков: Ci - перистые, Cs - перисто-слоистые, Cc - перисто-кучевые, Ac - высококучевые, As - высокослоистые, Sc - слоисто-кучевые, Ns - слоисто-дождевые, Cu - кучевые, Cb - кучево-дождевые. Подробнее классификацию облаков см. в Атласе облаков (PDF).T - Температура воздуха - температура, измеренная на высоте 2 м над землей.Td - Температура точки росы - температура, при понижении до которой содержащийся в воздухе водяной пар достигнет насыщения.f - Относительная влажность воздуха - влажноcть воздуха, измеренная на высоте 2 м над землей.Te - Эффективная температура - температура, которую ощущает одетый по сезону человек в тени. Характеристика душности погоды. При расчете учитывается влияние влажности воздуха и скорости ветра на теплоощущения человека.Tes - Эффективная температура на солнце - температура, которую ощущает человек, с поправкой на солнечный нагрев. Характеристика знойности погоды. Зависит от высоты солнца над горизонтом, облачности и скорости ветра. Ночью, в пасмурную погоду, а также при ветре 12 м/с и более поправка равна нулю.P - Атмосферное давление - приведенное к уровню моря атмосферное давление.Po - Атмосферное давление - измеренное на уровне метеостанции атмосферное давление.Tmin - Минимальная температура - минимум температуры воздуха на высоте 2 м над землей.Tmax - Максимальная температура - максимум температуры воздуха на высоте 2 м над землей.R - Количество осадков - Количество выпавших осадков за период времени, мм. При наведении курсора мыши на число - период времени, за который выпало указанное количество осадков.R24 - Количество осадков - Количество выпавших осадков за 24 часа, мм.S - Снежный покров - Высота снежного покрова, см. При наведении курсора мыши на число - состояние снежного покрова и степень покрытия местности в баллах. О проекте FAQ Гостевая книга Метеоголосования МЕТЕОФОРУМ Метеоклуб Клуб в Контакте Написать нам Карта сайта Пользовательское соглашение Политика конфиденциальности © 2004-2019. Справочно-информационный портал "Погода и климат". Поддержка проекта - Константин Казаков. Хостинг - Инфобокс Яндекс цитирования       HotLog   Рейтинг@Mail.ru
© 2014-2019 ЯВИКС - все права защищены.
Наши контакты/Карта ссылок